[[{"header":{"parameterUnit":"m.s-1","parameterCategory":1,"la1":30.2991,"la2":30.254,"lo1":-89.0895,"lo2":-89.0444,"dy":0.0017,"dx":0.0017,"nx":28,"ny":28,"refTime":"2025-02-24T09:00:00:Z","depth":0,"parameterNumber":2,"parameterNumberName":"U-component_of_WINDS"},"data":[0,0,0,0,0,0,0,0,0,0,0,0,0,0,0,0,0,0,0,0,0,0,0,0,0,0,0,0,0,0,0,0,0,0,0,0,0,0,0,0,0,0,0,0,0,0,0,0,0,0,0,0,0,0,0,0,0,0,1.4319,1.4319,0,1.4322,1.4322,1.4322,1.4308,1.4308,1.4308,1.4307,1.431,1.4311,1.4311,0,0,0,0,0,0,0,0,0,0,0,0,0,1.4301,1.4301,1.4319,1.4319,1.4319,1.4322,1.4322,1.4322,1.4308,1.4308,1.4307,1.4307,1.431,1.431,1.4311,0,0,0,0,0,0,0,0,0,0,0,0,0,1.4307,1.4301,1.4319,1.4313,1.4312,1.4322,1.4322,1.4322,1.4309,1.4308,1.4307,1.4307,1.431,1.431,1.4311,1.4328,0,0,1.4313,1.4314,0,0,0,0,0,0,0,0,1.4307,1.4308,1.4314,1.4313,1.4313,1.4314,1.4317,1.4324,1.4309,1.431,1.4307,1.4306,1.4312,1.4312,1.4314,1.4328,1.4328,1.4313,1.4314,1.4314,1.4314,0,0,0,0,0,0,0,1.4306,1.4307,1.432,1.4314,1.4313,1.431,1.431,1.4318,1.4314,1.431,1.4309,1.4309,1.4312,1.4314,1.4314,1.4328,1.4313,1.4314,1.4314,1.4315,1.4355,1.4356,0,0,0,0,0,0,1.4307,1.4307,1.432,1.4321,1.4308,1.431,1.4311,1.4314,1.4314,1.4314,1.431,1.4309,1.4313,1.4314,1.4314,1.4334,1.4314,1.4315,1.4315,1.4354,1.4355,1.4356,0,0,0,0,0,0,1.4306,1.4308,1.432,1.4314,1.4315,1.4311,1.4316,1.4315,1.4317,1.4314,1.4313,1.4313,1.4312,1.4313,1.4324,1.4334,1.4315,1.4316,1.4354,1.4355,1.4356,1.4372,0,0,0,0,0,0,1.4306,1.4308,1.4314,1.4314,1.4315,1.433,1.4316,1.4315,1.4318,1.4317,1.4317,1.4316,1.4312,1.4324,1.4325,1.4334,1.4316,1.4353,1.4354,1.4355,1.4371,1.4374,1.4376,0,0,0,0,0,1.4305,1.4319,1.4315,1.4316,1.4323,1.4331,1.4332,1.4327,1.4319,1.4325,1.4324,1.4316,1.4332,1.4325,1.4327,1.4336,1.4352,1.4354,1.4355,1.437,1.4373,1.4376,0,0,0,0,0,0,1.432,1.4319,1.4314,1.4328,1.433,1.4328,1.4336,1.433,1.4334,1.4333,1.4326,1.4326,1.4339,1.4338,1.433,1.4352,1.4341,1.4343,1.4351,1.4355,1.4357,1.4357,1.4317,0,0,0,0,0,1.4325,1.4332,1.433,1.4342,1.4343,1.434,1.4343,1.4339,1.434,1.4341,1.434,1.4342,1.4347,1.4351,1.4356,1.4371,1.4371,1.4378,1.4381,1.4383,1.4385,1.4392,1.4396,1.4361,1.4361,1.4361,0,0,1.4335,1.4335,1.4339,1.4345,1.4346,1.4353,1.434,1.4348,1.4353,1.4342,1.4352,1.4352,1.4354,1.4367,1.4372,1.4367,1.4394,1.4385,1.4387,1.4387,1.4394,1.4398,1.4401,1.4362,1.4362,1.4362,0,0,1.4357,1.4357,1.4368,1.4369,1.4371,1.4368,1.4371,1.4371,1.437,1.438,1.4372,1.4378,1.4388,1.4389,1.4391,1.4414,1.4407,1.4416,1.4429,1.4437,1.444,1.4442,1.445,1.4453,1.4418,1.4418,1.4418,0,1.4369,1.4379,1.4374,1.4382,1.4385,1.4376,1.4386,1.4387,1.4391,1.4393,1.4386,1.4398,1.4399,1.4412,1.4418,1.442,1.4422,1.4416,1.444,1.4442,1.4444,1.4452,1.4455,1.4419,1.4419,1.4418,1.4418,0,1.4394,1.4401,1.4409,1.4412,1.4416,1.4425,1.4422,1.4426,1.4422,1.442,1.4431,1.4431,1.4436,1.4439,1.4435,1.4451,1.4448,1.4441,1.443,1.4449,1.4456,1.4458,1.442,1.442,1.4419,1.4419,0,0,1.4424,1.4425,1.4428,1.4429,1.4431,1.4436,1.4445,1.445,1.4454,1.4457,1.4464,1.4472,1.4466,1.4468,1.4464,1.4471,1.4489,1.4463,1.4463,1.4468,1.4507,1.4512,1.4515,1.4485,1.4485,1.4486,1.4507,0,1.4445,1.446,1.4456,1.4472,1.4478,1.447,1.4477,1.4479,1.4478,1.4483,1.4482,1.4488,1.4479,1.448,1.4487,1.4486,1.4497,1.4484,1.4491,1.4492,1.4491,1.4519,1.4524,1.4544,1.451,1.451,1.4511,0,1.4472,1.4475,1.4491,1.4492,1.4495,1.4502,1.4506,1.4511,1.4513,1.4511,1.4514,1.4509,1.4518,1.4507,1.4519,1.451,1.4513,1.4513,1.4514,1.4514,1.4502,1.4519,1.455,1.4553,1.4515,1.4514,1.4514,0,1.4492,1.4501,1.4512,1.4513,1.4514,1.452,1.452,1.4521,1.4525,1.4528,1.453,1.4535,1.4537,1.4541,1.4537,1.453,1.455,1.4539,1.4549,1.4549,1.4553,1.4552,1.4584,1.4555,1.4555,1.4555,1.4555,0,1.4515,1.4525,1.4521,1.4527,1.4538,1.4534,1.4545,1.4544,1.4546,1.4552,1.4545,1.4551,1.4546,1.4552,1.4549,1.4559,1.456,1.4559,1.4558,1.4559,1.456,1.4561,1.4559,1.4556,1.4556,1.4556,1.4556,0,1.454,1.4537,1.4548,1.4548,1.4549,1.4557,1.4557,1.4563,1.4561,1.4569,1.4571,1.4568,1.4575,1.4571,1.4578,1.4576,1.4589,1.4586,1.4588,1.4587,1.4597,1.4596,1.463,1.4634,1.4604,1.4604,1.4604,0,1.4555,1.4562,1.4563,1.4567,1.4568,1.4574,1.4578,1.4573,1.4577,1.458,1.4586,1.4591,1.4595,1.4606,1.4605,1.461,1.4607,1.4618,1.4607,1.4608,1.4606,1.4606,1.4606,1.462,1.4621,1.4621,1.4621,0,1.4581,1.458,1.4585,1.459,1.4594,1.4597,1.46,1.4604,1.46,1.4604,1.461,1.4614,1.4621,1.4626,1.4631,1.4631,1.4625,1.4625,1.4627,1.4628,1.4629,1.4628,1.4594,1.4624,1.4624,1.4623,1.4623,1.4623,1.4601,1.4607,1.4609,1.4615,1.4617,1.462,1.4626,1.4625,1.463,1.4635,1.4632,1.464,1.4642,1.4647,1.4648,1.4654,1.4649,1.4653,1.4654,1.4655,1.4656,1.4629,1.4655,1.4655,1.4655,1.4655,1.4654,0,1.4627,1.4628,1.4634,1.4638,1.4643,1.4637,1.464,1.4645,1.4651,1.4653,1.4658,1.4665,1.4671,1.467,1.4675,1.468,1.4677,1.4681,1.4681,1.4681,1.466,1.4657,1.4683,1.4683,1.4683,1.4683,1.4683,1.4683,1.4641,1.4652,1.465,1.4662,1.4662,1.4669,1.4672,1.4674,1.4676,1.4685,1.4689,1.4689,1.469,1.4695,1.47,1.4699,1.4701,1.4706,1.4705,1.4685,1.4682,1.468,1.4677,1.4707,1.4707,1.4725,1.4726,1.4726]},{"header":{"parameterUnit":"m.s-1","parameterCategory":1,"la1":30.2991,"la2":30.254,"lo1":-89.0895,"lo2":-89.0444,"dy":0.0017,"dx":0.0017,"nx":28,"ny":28,"refTime":"2025-02-24T09:00:00:Z","depth":0,"parameterNumber":3,"parameterNumberName":"V-component_of_WINDS"},"data":[0,0,0,0,0,0,0,0,0,0,0,0,0,0,0,0,0,0,0,0,0,0,0,0,0,0,0,0,0,0,0,0,0,0,0,0,0,0,0,0,0,0,0,0,0,0,0,0,0,0,0,0,0,0,0,0,0,0,-2.0399,-2.0399,0,-2.0455,-2.0456,-2.0456,-2.0443,-2.0442,-2.0441,-2.044,-2.0497,-2.05,-2.0502,0,0,0,0,0,0,0,0,0,0,0,0,0,-2.0279,-2.0281,-2.0398,-2.0399,-2.04,-2.0455,-2.0456,-2.0457,-2.0443,-2.0442,-2.044,-2.0439,-2.0496,-2.0499,-2.0502,0,0,0,0,0,0,0,0,0,0,0,0,0,-2.0333,-2.0282,-2.0398,-2.04,-2.04,-2.0455,-2.0456,-2.0457,-2.0443,-2.0442,-2.044,-2.0438,-2.0495,-2.0499,-2.0503,-2.0559,0,0,-2.0514,-2.0516,0,0,0,0,0,0,0,0,-2.033,-2.0337,-2.0399,-2.04,-2.0401,-2.044,-2.0435,-2.0491,-2.0444,-2.0427,-2.044,-2.0438,-2.0479,-2.0484,-2.0499,-2.0562,-2.0564,-2.0515,-2.0517,-2.0519,-2.052,0,0,0,0,0,0,0,-2.0326,-2.0335,-2.0421,-2.04,-2.0401,-2.0398,-2.0404,-2.0445,-2.0462,-2.0428,-2.0427,-2.0434,-2.048,-2.0495,-2.05,-2.0565,-2.0515,-2.0518,-2.052,-2.0522,-2.0679,-2.0681,0,0,0,0,0,0,-2.0321,-2.0332,-2.0419,-2.0423,-2.036,-2.0401,-2.0408,-2.0429,-2.0461,-2.0465,-2.0436,-2.0434,-2.0489,-2.0495,-2.0502,-2.0571,-2.0519,-2.0522,-2.0524,-2.0677,-2.068,-2.0682,0,0,0,0,0,0,-2.0319,-2.0329,-2.0417,-2.0377,-2.0388,-2.0405,-2.0429,-2.0431,-2.0447,-2.0467,-2.047,-2.0449,-2.0488,-2.0497,-2.0545,-2.0573,-2.0524,-2.0527,-2.0675,-2.0678,-2.0681,-2.071,0,0,0,0,0,0,-2.0316,-2.0329,-2.035,-2.0378,-2.039,-2.0459,-2.0431,-2.0433,-2.0453,-2.0451,-2.048,-2.0483,-2.0488,-2.054,-2.0549,-2.0578,-2.053,-2.0673,-2.0676,-2.068,-2.0707,-2.0713,-2.0719,0,0,0,0,0,-2.0311,-2.0356,-2.0351,-2.0362,-2.0417,-2.0461,-2.0468,-2.0473,-2.0456,-2.0478,-2.0491,-2.0482,-2.0568,-2.0545,-2.0555,-2.0585,-2.0671,-2.0675,-2.0679,-2.0704,-2.0712,-2.0719,0,0,0,0,0,0,-2.033,-2.0359,-2.0355,-2.0409,-2.0433,-2.0459,-2.0486,-2.0481,-2.051,-2.0507,-2.0512,-2.0518,-2.0569,-2.0582,-2.0555,-2.0642,-2.0617,-2.0624,-2.0632,-2.064,-2.0646,-2.0643,-2.0534,0,0,0,0,0,-2.0341,-2.0374,-2.0397,-2.0443,-2.0455,-2.0469,-2.0488,-2.049,-2.0515,-2.0525,-2.0541,-2.0566,-2.0598,-2.062,-2.0651,-2.0708,-2.0715,-2.0734,-2.074,-2.0745,-2.0751,-2.0784,-2.0793,-2.0696,-2.0696,-2.0695,0,0,-2.0363,-2.0383,-2.0404,-2.0448,-2.0466,-2.0501,-2.0477,-2.0515,-2.0541,-2.053,-2.0578,-2.0591,-2.0618,-2.0672,-2.0697,-2.0685,-2.078,-2.0751,-2.0755,-2.0758,-2.0789,-2.0799,-2.0807,-2.0698,-2.0698,-2.0697,0,0,-2.0422,-2.0439,-2.048,-2.05,-2.0528,-2.0537,-2.0547,-2.0574,-2.0583,-2.0631,-2.0624,-2.0655,-2.0711,-2.0731,-2.0749,-2.0816,-2.081,-2.0826,-2.086,-2.0891,-2.0899,-2.0906,-2.0931,-2.094,-2.0832,-2.0832,-2.0832,0,-2.0445,-2.0497,-2.0502,-2.054,-2.056,-2.0553,-2.0595,-2.0613,-2.0651,-2.0665,-2.0651,-2.0722,-2.074,-2.0799,-2.0816,-2.083,-2.0842,-2.0823,-2.0898,-2.0905,-2.0911,-2.0935,-2.0945,-2.0834,-2.0833,-2.0833,-2.0833,0,-2.0526,-2.0562,-2.0592,-2.0629,-2.0652,-2.0692,-2.0703,-2.0726,-2.0726,-2.0737,-2.0786,-2.0807,-2.0844,-2.0858,-2.0857,-2.0917,-2.0909,-2.0896,-2.0871,-2.0922,-2.0945,-2.0954,-2.0836,-2.0836,-2.0835,-2.0835,0,0,-2.0598,-2.0638,-2.0648,-2.0666,-2.0697,-2.0726,-2.0766,-2.0801,-2.0822,-2.0848,-2.0882,-2.093,-2.0919,-2.0939,-2.0942,-2.0969,-2.1023,-2.0953,-2.0954,-2.0967,-2.1092,-2.1102,-2.1113,-2.1019,-2.102,-2.1022,-2.109,0,-2.066,-2.0731,-2.0736,-2.08,-2.0834,-2.0828,-2.0863,-2.0887,-2.0898,-2.0929,-2.0941,-2.0975,-2.0957,-2.097,-2.0997,-2.1011,-2.1049,-2.1006,-2.1051,-2.1053,-2.1046,-2.1125,-2.1135,-2.1199,-2.1099,-2.11,-2.1102,0,-2.0742,-2.0771,-2.0839,-2.0867,-2.0882,-2.0913,-2.0947,-2.0976,-2.1003,-2.1009,-2.1032,-2.1031,-2.1073,-2.1046,-2.1104,-2.1075,-2.1094,-2.1104,-2.1106,-2.1111,-2.1081,-2.1133,-2.1219,-2.1229,-2.1115,-2.1114,-2.1113,0,-2.0789,-2.0846,-2.0894,-2.0908,-2.0942,-2.0965,-2.098,-2.1005,-2.1026,-2.1056,-2.107,-2.1104,-2.1123,-2.1149,-2.1158,-2.1137,-2.1216,-2.1189,-2.1223,-2.1223,-2.1241,-2.124,-2.1332,-2.1251,-2.1251,-2.1251,-2.1251,0,-2.0859,-2.09,-2.0916,-2.0945,-2.0992,-2.0999,-2.1045,-2.1059,-2.1081,-2.1114,-2.111,-2.1141,-2.115,-2.1182,-2.1189,-2.1237,-2.1245,-2.1252,-2.1253,-2.1253,-2.1252,-2.1266,-2.1262,-2.1253,-2.1253,-2.1252,-2.1252,0,-2.092,-2.0931,-2.0984,-2.1012,-2.102,-2.1053,-2.1077,-2.1106,-2.1117,-2.1158,-2.1168,-2.1185,-2.1224,-2.1234,-2.128,-2.1284,-2.1341,-2.1338,-2.1333,-2.1333,-2.1367,-2.1364,-2.1472,-2.1487,-2.1395,-2.1396,-2.1397,0,-2.0964,-2.0996,-2.1028,-2.1049,-2.1066,-2.1101,-2.1123,-2.113,-2.1154,-2.1188,-2.1213,-2.1251,-2.1281,-2.1343,-2.1359,-2.1394,-2.1393,-2.1428,-2.1398,-2.1397,-2.1395,-2.1394,-2.1398,-2.1434,-2.1435,-2.1436,-2.1437,0,-2.1041,-2.1046,-2.1078,-2.1113,-2.114,-2.1168,-2.1194,-2.1212,-2.1224,-2.1251,-2.129,-2.1314,-2.1361,-2.1399,-2.1435,-2.145,-2.1446,-2.1446,-2.1456,-2.1457,-2.1453,-2.1457,-2.1349,-2.1444,-2.1443,-2.1442,-2.1442,-2.1442,-2.1096,-2.1125,-2.1152,-2.1189,-2.121,-2.1235,-2.1264,-2.1279,-2.1312,-2.1352,-2.1354,-2.1397,-2.1424,-2.1472,-2.1489,-2.1524,-2.1513,-2.1527,-2.1531,-2.1535,-2.1538,-2.1446,-2.153,-2.153,-2.1529,-2.1529,-2.1529,0,-2.1175,-2.1192,-2.1226,-2.1264,-2.1293,-2.1286,-2.1315,-2.134,-2.1379,-2.1404,-2.1435,-2.1481,-2.1518,-2.1538,-2.1575,-2.1598,-2.1597,-2.1608,-2.1607,-2.1611,-2.1545,-2.1533,-2.1608,-2.1608,-2.1608,-2.1608,-2.1608,-2.1608,-2.1219,-2.1268,-2.1276,-2.1336,-2.1353,-2.1396,-2.1414,-2.1437,-2.1458,-2.151,-2.1541,-2.1553,-2.1577,-2.1616,-2.165,-2.1655,-2.167,-2.1682,-2.1686,-2.1624,-2.1615,-2.1608,-2.1597,-2.1684,-2.1685,-2.1749,-2.175,-2.175]}]]